Temp
5 6 6 6 7 7 7 7 7 7 7 7 7 7 6 7 8 7 7 7 6 6 6 6 7 6 6 6 6 5 5 5 5 5 5 4 3 3 3 3 3 2 2 2
5 6 6 6 6 7 7 7 7 7 7 7 7 8 7 7 7 7 7 6 6 6 6 6 6 6 6 6 6 6 6 5 5 5 4 4 4 3 3 3 2 3 2 1
4 5 6 5 6 6 6 7 7 7 7 7 8 8 8 7 7 7 7 7 6 6 6 6 6 6 6 6 6 6 6 5 5 4 4 4 3 3 3 3 3 2 1 0
4 4 2 4 5 5 6 6 7 7 7 7 8 8 8 7 7 7 6 6 6 6 6 6 6 5 5 5 5 5 5 5 4 4 4 4 3 3 3 2 2 1 1 0
3 3 3 4 5 6 6 6 7 7 7 7 7 7 8 8 7 7 7 6 6 6 5 5 5 5 5 5 5 5 4 4 4 3 3 3 3 2 2 1 1 1 0 -0
-2 2 1 3 5 6 6 6 6 7 7 7 7 7 7 7 7 7 6 6 6 5 5 5 4 4 4 4 4 4 4 3 3 3 3 2 2 2 1 1 1 -0 -1 -2
-2 -1 3 4 5 5 6 5 6 7 6 6 7 7 7 7 7 6 6 6 6 5 4 4 4 4 4 4 3 3 3 3 3 2 2 2 1 1 0 0 -0 -1 -2 -2
-1 0 1 4 4 5 5 5 6 6 6 6 6 6 6 6 6 6 6 6 5 4 4 4 3 3 3 2 2 2 2 2 2 2 1 1 0 -0 -0 -1 -1 -2 -3 -3
1 0 2 3 3 4 4 5 5 5 6 6 5 6 5 5 5 5 5 5 4 4 3 3 3 2 2 2 2 1 1 1 1 1 0 -0 -1 -1 -1 -2 -3 -4 -4 -5
2 1 1 1 3 3 4 4 4 3 4 5 5 5 5 5 5 4 4 4 3 3 3 3 2 2 1 1 1 1 1 1 0 -0 -1 -1 -2 -2 -3 -3 -4 -5 -6 -6
2 1 -2 -1 -0 2 3 3 3 3 4 5 4 4 5 5 5 4 4 3 3 3 3 2 2 1 1 1 1 1 1 0 -0 -1 -1 -2 -3 -4 -4 -5 -6 -7 -8 -8
1 1 0 0 1 -1 1 3 2 3 3 4 3 4 4 4 4 3 3 3 3 2 2 1 1 1 1 1 1 1 0 -0 -1 -2 -2 -3 -4 -5 -6 -7 -8 -9 -10 -10
-0 0 1 1 1 -0 0 -0 0 0 1 3 3 3 3 3 2 2 2 3 3 2 1 1 1 0 0 0 0 -0 -1 -2 -2 -3 -4 -5 -6 -9 -11 -12 -12 -11 -12 -12
0 0 1 1 1 1 2 1 1 2 2 2 3 2 2 2 2 2 2 2 2 2 1 1 0 -0 -1 -1 -1 -1 -2 -3 -4 -5 -5 -6 -8 -11 -13 -13 -12 -11 -12 -12
-0 -0 0 1 1 1 1 1 1 1 1 1 2 1 1 1 1 1 1 2 1 1 1 0 -0 -1 -2 -2 -3 -4 -5 -6 -6 -6 -7 -10 -11 -10 -10 -11 -11 -11 -12 -12
-0 -0 -1 -0 0 0 0 0 1 1 1 1 1 1 1 0 0 0 1 1 1 1 -0 -1 -2 -3 -4 -5 -6 -7 -7 -7 -8 -10 -10 -10 -11 -11 -11 -11 -12 -12 -12 -13
-2 -1 -1 -1 -1 -0 -0 0 0 0 0 0 0 -0 -0 -1 -1 -2 -2 -1 -1 -2 -2 -4 -5 -5 -7 -7 -7 -8 -10 -10 -9 -10 -11 -11 -12 -12 -12 -12 -13 -13 -13 -14
-2 -2 -2 -2 -1 -1 -1 -1 -1 -1 -1 -1 -2 -2 -2 -2 -2 -3 -3 -3 -4 -5 -5 -7 -8 -9 -9 -9 -10 -10 -10 -11 -11 -11 -12 -12 -12 -12 -13 -13 -13 -14 -14 -15
-3 -3 -3 -2 -2 -2 -2 -2 -3 -2 -2 -2 -3 -3 -4 -4 -4 -4 -5 -5 -6 -8 -8 -9 -9 -10 -10 -11 -11 -11 -12 -12 -12 -12 -12 -13 -13 -13 -14 -14 -15 -15 -16 -16
-3 -3 -2 -2 -2 -3 -3 -4 -4 -3 -4 -4 -4 -5 -6 -6 -6 -7 -8 -9 -9 -10 -11 -11 -11 -12 -12 -12 -12 -12 -12 -12 -12 -13 -13 -14 -14 -15 -15 -16 -16 -17 -17 -18
-5 -5 -4 -4 -4 -4 -4 -4 -5 -5 -5 -7 -8 -8 -9 -9 -9 -9 -10 -11 -11 -11 -12 -12 -12 -12 -12 -12 -12 -13 -13 -13 -14 -14 -14 -15 -16 -16 -17 -17 -18 -18 -19 -20
-7 -7 -7 -7 -8 -7 -8 -8 -8 -9 -9 -9 -10 -10 -10 -11 -11 -11 -11 -12 -12 -12 -12 -13 -13 -13 -13 -13 -13 -14 -14 -14 -15 -16 -16 -17 -17 -18 -18 -19 -20 -20 -21 -21
-9 -9 -9 -9 -9 -9 -9 -9 -10 -10 -10 -10 -11 -11 -11 -11 -11 -12 -12 -12 -12 -12 -13 -13 -13 -14 -14 -14 -14 -15 -16 -16 -17 -17 -18 -19 -19 -20 -21 -21 -22 -22 -23 -23
-10 -10 -9 -10 -10 -10 -10 -10 -11 -11 -11 -11 -11 -12 -12 -12 -12 -13 -13 -13 -13 -14 -14 -14 -15 -15 -15 -16 -16 -17 -18 -18 -19 -19 -20 -20 -21 -22 -22 -23 -24 -24 -24 -25
-11 -11 -11 -11 -11 -11 -11 -11 -12 -12 -12 -12 -12 -13 -13 -13 -14 -14 -14 -14 -15 -15 -15 -16 -16 -17 -17 -18 -18 -18 -19 -19 -20 -20 -21 -22 -23 -23 -24 -25 -25 -26 -26 -26
-12 -12 -12 -12 -12 -12 -12 -13 -13 -13 -13 -14 -14 -14 -14 -14 -15 -15 -15 -15 -16 -16 -16 -17 -17 -17 -18 -18 -19 -20 -20 -21 -21 -22 -23 -24 -25 -25 -26 -26 -27 -27 -27 -27
-13 -13 -13 -13 -13 -14 -14 -14 -14 -14 -14 -14 -14 -15 -15 -15 -15 -16 -16 -16 -17 -17 -18 -18 -19 -19 -20 -20 -20 -21 -22 -23 -23 -24 -25 -26 -26 -27 -27 -27 -27 -28 -28 -28
Height
3023 3030 3035 3036 3038 3039 3040 3042 3042 3045 3047 3051 3054 3055 3059 3061 3059 3059 3061 3061 3060 3060 3061 3064 3066 3065 3065 3064 3062 3063 3065 3066 3067 3067 3066 3068 3071 3071 3073 3073 3073 3072 3070 3068
3016 3022 3027 3029 3030 3031 3034 3037 3037 3039 3040 3044 3047 3049 3049 3051 3052 3053 3052 3053 3055 3055 3055 3056 3058 3060 3061 3060 3059 3059 3060 3062 3063 3063 3064 3065 3066 3067 3067 3067 3065 3062 3059 3057
3009 3016 3020 3020 3016 3024 3027 3029 3032 3032 3034 3038 3040 3040 3040 3042 3046 3046 3047 3048 3049 3049 3050 3049 3051 3053 3053 3054 3053 3054 3054 3055 3056 3057 3058 3058 3058 3058 3058 3057 3055 3052 3050 3048
3004 3012 3012 3002 3010 3018 3020 3023 3026 3027 3028 3031 3034 3035 3034 3030 3036 3037 3040 3042 3044 3044 3043 3042 3043 3045 3046 3046 3047 3046 3046 3047 3049 3050 3051 3052 3051 3051 3050 3048 3046 3044 3042 3040
3000 3000 3005 3001 3007 3011 3013 3015 3018 3019 3021 3025 3027 3029 3028 3028 3030 3033 3034 3036 3037 3037 3036 3035 3035 3036 3038 3038 3039 3039 3041 3042 3043 3044 3044 3043 3043 3041 3039 3037 3037 3035 3033 3031
2999 2995 2995 2993 3002 3009 3008 3003 3012 3014 3016 3018 3020 3019 3022 3022 3024 3026 3028 3030 3031 3030 3029 3029 3028 3029 3030 3031 3032 3033 3033 3035 3036 3037 3038 3036 3034 3032 3031 3030 3028 3026 3024 3021
2998 2994 2989 2991 2999 3005 3003 3004 3007 3009 3011 3009 3012 3013 3016 3016 3019 3020 3021 3021 3021 3021 3021 3022 3021 3022 3023 3024 3025 3026 3027 3029 3030 3029 3028 3027 3026 3024 3023 3022 3020 3018 3016 3014
2988 2990 2990 2990 2994 2999 2998 3002 3005 3005 3004 3004 3006 3008 3009 3010 3013 3014 3014 3013 3013 3014 3014 3014 3013 3014 3016 3018 3019 3020 3022 3022 3022 3020 3019 3018 3017 3016 3015 3014 3012 3010 3007 3005
2982 2982 2983 2986 2986 2988 2991 2994 2995 2995 2997 2997 3000 3001 3003 3004 3005 3005 3006 3006 3006 3006 3006 3005 3005 3007 3009 3011 3013 3015 3015 3016 3014 3013 3012 3011 3009 3008 3008 3006 3003 3000 2997 2995
2974 2979 2979 2981 2981 2985 2986 2989 2987 2992 2993 2992 2993 2996 2998 2998 2998 2998 2998 2997 2997 2998 2998 2997 2998 3000 3003 3004 3006 3007 3008 3008 3006 3005 3005 3005 3003 3001 2998 2995 2993 2991 2988 2985
2971 2975 2975 2973 2973 2975 2976 2980 2979 2981 2984 2985 2987 2990 2991 2993 2992 2991 2991 2990 2990 2991 2991 2990 2992 2994 2996 2997 2998 2998 2999 2999 2997 2996 2995 2995 2993 2991 2989 2986 2984 2981 2979 2977
2967 2971 2970 2971 2973 2967 2970 2970 2975 2975 2978 2977 2979 2982 2984 2985 2985 2984 2983 2983 2983 2984 2984 2984 2985 2987 2988 2988 2989 2990 2990 2989 2987 2986 2984 2984 2983 2981 2979 2976 2973 2971 2969 2968
2966 2968 2968 2969 2973 2973 2973 2973 2970 2974 2975 2972 2970 2974 2977 2978 2978 2976 2976 2975 2976 2977 2977 2978 2978 2979 2979 2979 2980 2981 2980 2978 2975 2975 2973 2972 2969 2968 2968 2966 2965 2963 2961 2959
2958 2958 2960 2961 2963 2964 2964 2966 2968 2968 2966 2965 2966 2966 2969 2971 2970 2969 2968 2968 2967 2969 2970 2971 2971 2971 2970 2970 2970 2970 2968 2967 2966 2964 2960 2957 2955 2954 2955 2956 2956 2955 2953 2951
2951 2952 2954 2956 2957 2955 2956 2958 2960 2960 2959 2958 2960 2960 2962 2964 2963 2962 2960 2958 2959 2960 2960 2960 2960 2961 2960 2960 2960 2960 2959 2958 2954 2950 2947 2944 2945 2947 2947 2946 2945 2943 2941 2939
2947 2948 2949 2951 2952 2951 2953 2954 2953 2953 2953 2953 2953 2954 2954 2956 2955 2954 2953 2952 2952 2952 2952 2952 2952 2951 2951 2950 2949 2948 2946 2943 2942 2945 2944 2942 2941 2939 2938 2937 2936 2933 2930 2927
2943 2944 2943 2944 2944 2947 2948 2947 2946 2946 2947 2947 2947 2947 2947 2947 2948 2947 2947 2945 2943 2943 2943 2943 2942 2943 2941 2939 2938 2940 2942 2942 2941 2939 2937 2936 2935 2934 2931 2928 2925 2923 2920 2916
2935 2937 2938 2938 2938 2939 2940 2940 2940 2940 2940 2940 2940 2940 2940 2939 2939 2939 2938 2937 2934 2936 2936 2936 2937 2937 2937 2936 2935 2935 2935 2935 2935 2934 2932 2930 2927 2924 2922 2919 2915 2912 2907 2903
2930 2931 2931 2931 2931 2932 2932 2933 2933 2934 2934 2934 2933 2932 2932 2933 2933 2933 2933 2933 2932 2933 2932 2931 2930 2930 2931 2931 2931 2930 2930 2929 2929 2926 2924 2921 2917 2914 2910 2907 2903 2899 2895 2892
2922 2923 2923 2923 2924 2924 2925 2925 2925 2926 2926 2926 2926 2926 2926 2927 2927 2928 2928 2927 2926 2926 2926 2926 2927 2927 2927 2927 2927 2925 2923 2921 2919 2916 2913 2910 2906 2902 2898 2894 2891 2887 2883 2879
2915 2915 2915 2916 2916 2916 2916 2916 2917 2917 2918 2919 2920 2920 2921 2922 2923 2922 2925 2924 2922 2923 2924 2924 2924 2924 2923 2922 2920 2917 2915 2911 2908 2905 2901 2898 2894 2891 2887 2883 2878 2873 2869 2865
2913 2913 2913 2913 2913 2913 2914 2914 2915 2916 2917 2919 2919 2920 2921 2922 2922 2921 2923 2923 2922 2921 2921 2921 2920 2919 2916 2913 2911 2908 2905 2902 2898 2894 2890 2886 2882 2878 2873 2868 2863 2859 2855 2850
2918 2918 2918 2918 2917 2917 2917 2918 2918 2919 2920 2921 2921 2922 2922 2922 2922 2922 2922 2921 2920 2918 2916 2915 2913 2911 2908 2905 2902 2898 2894 2890 2886 2882 2878 2873 2868 2863 2858 2853 2849 2844 2840 2836
2922 2922 2921 2920 2920 2921 2921 2921 2922 2923 2923 2922 2923 2922 2922 2921 2921 2919 2918 2916 2914 2913 2910 2908 2905 2902 2898 2894 2890 2886 2882 2877 2872 2868 2863 2858 2853 2848 2843 2838 2834 2830 2826 2823
2925 2924 2923 2923 2923 2922 2922 2922 2923 2922 2922 2921 2921 2920 2919 2918 2916 2914 2912 2909 2907 2905 2902 2899 2895 2891 2887 2882 2878 2873 2869 2864 2859 2854 2850 2845 2840 2835 2831 2826 2822 2818 2815 2811
2926 2925 2924 2924 2923 2922 2922 2922 2922 2921 2920 2919 2917 2916 2914 2912 2910 2907 2905 2901 2897 2894 2891 2888 2884 2881 2876 2871 2867 2862 2857 2852 2848 2843 2838 2833 2829 2825 2821 2817 2813 2809 2806 2803
2929 2928 2927 2926 2924 2923 2921 2920 2919 2918 2916 2915 2913 2911 2908 2905 2902 2899 2896 2893 2890 2885 2881 2877 2873 2869 2864 2860 2856 2852 2847 2843 2838 2834 2829 2825 2821 2817 2813 2810 2806 2802 2799 2796
Wind_Speed
46 38 28 26 38 33 34 33 33 33 30 29 26 28 26 25 22 22 20 23 23 23 22 19 17 20 21 24 28 29 29 26 20 19 18 18 19 20 22 26 30 31 33 36
30 43 43 38 29 30 40 31 28 30 30 25 23 22 29 25 18 22 22 22 27 24 23 25 25 22 24 23 23 25 23 22 23 21 20 22 23 26 30 31 30 33 34 31
34 25 35 35 47 33 32 36 27 36 32 27 24 29 28 20 22 25 28 32 30 31 27 28 30 22 24 25 23 25 29 30 26 24 25 27 30 30 27 30 33 32 30 29
29 32 9 40 40 41 29 36 36 27 24 20 18 22 25 23 21 21 26 27 26 27 28 29 30 29 24 25 28 27 30 30 28 29 30 30 27 29 32 32 29 28 29 30
14 29 19 32 21 22 34 35 30 27 27 25 22 17 23 28 22 22 25 26 27 28 32 32 30 30 26 24 25 26 28 29 30 29 26 28 30 31 31 29 28 29 30 31
14 15 17 26 27 24 16 32 29 22 21 21 22 29 27 30 29 24 24 26 28 30 29 28 29 29 28 25 24 25 26 26 25 26 26 28 30 29 28 28 29 30 31 32
25 12 17 14 20 22 22 17 18 23 21 21 24 28 25 27 25 21 23 28 31 27 26 26 28 28 29 26 26 26 26 26 25 26 28 29 28 28 28 29 30 30 31 32
10 15 11 10 20 28 30 23 23 17 18 14 17 11 17 22 23 21 24 28 25 24 26 28 27 26 27 27 27 27 25 25 27 28 29 29 29 30 30 31 31 31 33 33
14 12 9 17 16 21 24 23 12 20 36 31 24 25 23 19 20 23 25 25 25 26 27 27 25 25 28 28 27 26 27 27 29 30 30 30 31 32 32 31 31 32 34 34
14 17 21 17 18 27 25 22 15 18 17 21 23 27 23 23 24 24 26 25 24 29 28 28 27 27 29 29 30 30 30 31 32 32 33 32 32 31 31 33 34 33 33 34
24 20 13 14 21 23 27 27 18 20 18 18 20 23 22 23 22 25 26 25 26 28 28 29 29 30 31 33 33 34 34 34 34 35 36 35 34 33 34 35 34 33 31 30
27 20 19 23 29 24 20 36 22 19 21 21 16 22 22 20 22 26 25 25 27 28 30 31 33 34 36 37 38 38 37 37 38 39 39 37 36 37 37 35 32 30 28 25
19 17 21 27 20 18 19 18 13 22 23 25 23 15 21 23 24 26 25 26 27 29 32 35 37 39 41 42 42 41 41 41 42 41 39 38 38 34 31 29 27 25 26 27
26 27 26 29 24 25 25 25 24 22 20 22 35 20 26 26 27 27 28 28 30 32 34 37 39 42 45 46 46 45 45 43 40 39 41 43 41 34 29 27 32 35 31 30
26 27 29 30 25 27 28 23 25 22 20 19 22 23 26 29 31 32 33 32 31 34 38 41 43 45 47 48 46 44 42 40 41 44 45 38 31 31 31 30 30 30 31 32
28 34 30 26 24 26 26 26 25 23 23 21 22 25 30 29 33 35 34 33 34 38 42 44 46 46 46 47 45 42 41 45 41 31 26 25 26 26 26 28 29 31 33 36
20 20 21 22 26 25 26 29 29 26 23 23 23 26 29 29 30 33 40 42 43 43 44 43 45 43 41 41 42 37 27 24 26 26 23 21 22 25 27 30 32 35 37 38
19 20 23 21 22 21 19 16 16 17 18 22 25 28 31 33 34 38 41 45 41 41 38 36 33 30 27 23 22 22 23 22 20 20 22 25 27 29 31 34 36 37 39 40
29 27 24 25 28 28 26 25 22 24 25 26 23 25 28 31 34 36 36 34 31 27 26 24 19 16 15 15 16 16 17 19 22 25 28 30 32 34 36 38 39 40 41 42
33 36 35 33 35 34 32 32 32 26 22 23 21 20 20 23 24 23 21 20 19 15 10 9 10 10 12 13 15 19 22 25 28 31 33 35 37 38 40 41 42 43 43 43
11 14 14 16 17 19 20 19 18 18 16 14 11 11 11 13 14 11 7 5 4 5 6 7 10 13 16 20 23 26 29 31 34 37 38 40 40 41 42 43 43 44 44 44
9 8 8 9 8 5 8 10 9 8 8 8 8 8 6 4 2 1 2 3 4 7 10 14 17 21 24 28 30 33 35 37 38 39 40 42 43 44 45 45 44 43 43 42
17 17 16 15 14 15 13 11 11 10 8 7 5 4 3 2 3 5 8 10 14 17 19 22 25 28 30 32 34 36 37 39 41 42 43 44 44 44 43 43 43 42 41 40
14 13 12 14 14 12 9 9 8 7 5 4 4 4 6 9 11 14 16 18 20 22 24 27 29 31 33 36 37 39 40 41 42 43 43 43 42 42 41 41 41 40 38 37
9 9 10 10 8 7 7 6 5 6 7 8 9 11 13 15 16 18 21 23 25 27 29 31 33 34 36 38 39 40 41 41 41 40 39 38 38 37 36 35 35 34 32 31
6 5 5 4 5 6 6 7 8 10 11 13 15 17 18 20 23 24 26 28 31 33 34 35 36 36 35 35 35 34 35 35 35 35 34 33 32 31 29 28 27 27 26 26
5 7 8 8 9 10 11 13 14 16 17 18 20 21 23 25 26 28 30 30 30 30 30 30 31 31 31 32 32 32 32 31 31 30 28 27 26 25 24 24 23 22 22 22
Wind_Direction
233 233 230 231 228 232 242 243 236 248 255 252 251 232 255 247 262 238 237 235 242 244 258 259 260 255 257 261 259 256 256 262 270 276 276 275 270 273 277 279 282 284 284 288
241 231 231 234 239 230 240 238 242 242 246 246 254 254 253 248 254 253 223 213 220 232 259 270 276 264 253 260 266 260 256 257 264 267 266 273 276 273 276 279 280 286 289 291
248 226 220 239 236 248 242 243 255 251 253 243 261 255 253 226 270 233 227 226 235 245 265 282 278 266 259 253 260 258 251 257 262 267 272 272 272 275 277 282 286 289 290 291
222 226 219 243 240 240 248 237 247 252 241 245 258 257 256 271 248 230 228 239 249 262 260 286 279 267 265 257 252 253 255 256 260 265 267 271 273 279 283 285 287 288 290 289
223 214 233 242 230 236 234 246 251 256 243 247 254 255 254 257 257 233 241 252 259 264 270 281 272 261 259 254 252 251 252 254 256 260 266 274 279 282 284 287 289 291 290 288
302 215 217 238 214 221 239 250 243 252 252 260 252 255 262 252 249 245 246 255 274 281 277 269 265 260 255 256 257 252 249 248 252 260 269 273 277 281 283 285 288 286 288 287
277 258 244 245 234 222 229 244 251 245 249 253 253 260 256 252 246 253 269 279 282 275 265 270 266 259 253 252 248 246 247 253 262 268 273 278 278 278 280 283 284 285 284 285
286 222 247 185 214 221 236 239 265 236 241 250 250 246 234 246 259 278 282 286 272 266 268 271 263 251 248 242 242 247 255 260 266 271 274 276 278 280 283 283 281 281 282 283
275 242 188 213 239 217 219 246 254 261 240 253 256 250 265 267 286 290 287 284 267 268 271 266 255 246 241 242 247 253 259 265 270 275 278 277 278 282 283 281 277 276 278 281
273 281 244 286 246 217 231 250 246 269 240 239 257 253 260 277 288 285 287 282 272 271 268 258 247 243 242 244 249 255 261 267 273 275 275 278 281 282 279 276 277 277 277 278
263 282 297 283 279 229 237 250 253 238 247 235 246 260 265 272 276 278 283 275 266 265 259 252 248 245 245 248 252 257 263 268 271 274 275 276 277 278 279 277 274 274 274 274
277 300 289 293 307 280 247 242 241 229 253 234 254 259 261 271 274 274 275 271 265 260 253 249 247 246 247 250 253 258 262 265 267 267 268 270 275 274 270 267 267 268 269 275
258 256 267 274 275 270 271 287 281 284 284 271 246 275 267 268 270 271 271 271 270 263 254 251 250 250 251 253 256 258 259 259 260 262 262 263 260 259 261 262 264 265 271 274
240 243 249 262 266 268 272 267 267 284 280 301 256 277 279 272 271 267 266 266 263 262 259 256 254 252 253 255 257 257 257 256 256 256 256 256 255 252 250 255 261 270 270 273
235 243 248 254 259 258 265 270 270 264 271 268 268 268 266 273 273 267 264 266 267 264 260 258 255 253 253 254 255 255 256 254 250 248 248 252 262 281 281 277 274 276 279 283
244 243 244 245 249 256 262 269 274 279 278 267 254 263 270 265 273 268 268 273 278 272 264 263 260 256 257 256 255 254 249 245 249 271 281 278 275 274 274 276 282 286 287 288
248 252 254 259 264 272 276 276 277 281 280 279 277 275 274 272 273 268 268 267 266 262 264 262 260 258 256 256 257 260 268 278 278 278 280 281 278 278 283 286 286 288 289 291
251 249 253 262 269 275 275 274 293 291 283 274 269 269 270 270 266 264 268 262 264 261 261 264 270 277 276 269 270 273 276 279 280 278 279 283 287 289 290 290 291 292 292 292
271 274 272 274 277 280 284 286 287 285 289 287 278 261 259 258 257 256 257 253 254 262 275 279 275 266 265 269 273 274 274 276 282 287 288 289 290 290 290 291 292 292 292 292
266 267 269 271 273 275 277 280 286 284 272 276 266 259 258 257 252 247 249 255 265 263 254 258 267 275 280 281 281 282 284 286 288 290 290 291 292 293 293 293 293 292 292 292
263 267 266 271 270 270 265 260 258 256 248 233 234 232 229 233 242 241 223 223 236 263 275 278 281 281 281 285 288 290 292 293 293 293 293 293 293 293 293 292 291 291 292 292
75 72 78 73 69 82 92 91 92 99 107 107 109 113 114 126 143 176 242 270 278 278 282 286 289 291 293 294 295 295 294 293 293 293 294 294 293 292 292 292 292 292 292 292
79 75 73 74 71 67 70 75 75 75 69 69 69 67 59 31 342 311 302 301 298 297 296 295 294 293 293 292 293 293 294 294 294 294 294 294 294 295 295 294 293 293 293 293
62 62 60 60 59 56 50 57 61 57 50 37 11 342 323 313 305 300 298 296 296 295 294 294 294 295 297 297 297 297 298 298 298 298 299 299 299 299 298 298 297 297 296 295
62 58 55 54 48 36 31 25 13 351 334 322 314 308 304 302 302 303 302 301 301 300 301 302 302 303 303 303 302 302 302 302 302 303 303 303 303 303 302 301 301 300 298 296
61 50 37 21 357 350 338 329 321 316 314 314 313 311 310 309 308 307 307 307 306 307 305 303 302 303 304 304 305 307 308 308 309 310 311 311 310 310 309 307 304 302 301 301
1 353 347 341 336 332 327 322 318 315 313 311 310 310 308 307 306 305 305 307 308 308 309 312 313 314 315 316 316 317 317 318 319 319 319 319 318 316 313 312 311 310 309 308